Wetterübersicht - Hohenpeißenberg - Ortsteil Bschorrwald     750 m über NN
47°47'26''N 11°00'47''E - - Zeitangaben in MEZ
Datum Mittwoch, 8. Februar 2023
Aktualisierung von 00:10 Uhr bis 23:50 Uhr alle 10 Minuten.
Zeit 12:39 (-1h = UTC-Zeit)
Temperatur Außen aktuell
-1,0 °C
Min.(04:32)
-7,9 °C
Max.(12:30)
-1,0 °C
Durchschnitt
-5,7 °C
Luftfeuchte Außen aktuell
69 %
Min.(12:31)
68 %
Max.(08:22)
96 %
Durchschnitt
82 %
Taupunkt aktuell
-5,9 °C
Min.(04:19)
-10,0 °C
Max.(11:15)
-5,7 °C
Durchschnitt
-8,2 °C
Luftdruck
aktuell
1036,2 hPa
gleichbleibend

-0,6 hPa/3h
Min.(12:26)
1036,2 hPa
Max.(00:00)
1038,3 hPa
Durchschnitt
1037,1 hPa
-0,8 hPa/1h -0,7 hPa/2h -0,1 hPa/6h -1,9 hPa/12h -- hPa/24h
Solarstrahlung aktuell
452 W/m²
Max.(11:39)
478 W/m²
Durchschnitt
289 W/m²
Wettervorhersage sonnig
Wettervorhersage VantagePro Teilweise wolkig mit wenig Temperaturänderung.
Persönliches Wohlbefinden leichter Kältestress (-6)
Windchill aktuell
-4,8
Min.(06:36)
-12,6
Max.(12:37)
-1,1
Durchschnitt
-7,7
Wind Böen aktuell
16,1 (3)
Max-Tag(11:33)
O-SO 24,1 (4)
Durchschnitt
8,5 (2)
Max Wind Böen letzte Stunde
19,3
letzten 3 Stunden
24,1
letzten 6 Stunden
24,1
Windgeschwindigkeit aktuell
11,3 (2)
Max.(11:22)
O 16,1 (3)
Durchschnitt
5,3 (1)
Windrichtung 112 / O-SO dominierend
O
Niederschlag
letzte Stunde 0,0
letzten 6 Stunden 0,0
aktueller Tag 0,0
aktuelle Woche 2,4
aktueller Monat 13,0
letzter Monat 17,8
Februar Vorjahr 58,4
aktuelles Jahr 30,8
Regen / Jahr 19
Schneehöhe 0,0 23.03.2015 21:45
Trockenzeiten
letzter Regen >0,2 l/m² 06.02.2023 um 13:40 Uhr
Trocken seit 1 Tag, 22 Stunden, 58 Minuten
Längste Trockenzeit 05.09.2015, 09:00 Uhr
bis
18.01.2016, 10:43 Uhr
Dauer: 135 Tage, 1 Stunden, 43 Minuten
Dauerfrost
Letzte Dauerfrostperiode 07.02.2023, 17:29 Uhr
bis
08.02.2023, 12:39 Uhr
Dauer: 19 Stunden, 9 Minuten
Längste Dauerfrostperiode 23.01.2010, 11:37 Uhr
bis
16.02.2010, 12:45 Uhr
Dauer: 24 Tage, 1 Stunden, 7 Minuten
Sonne
Sonnenaufgang07:33
Sonnenzenit12:30
Sonnenhöchststand27,216
Sonnenintensität aktuell657
Sonnenuntergang17:27
Sonnenaufgang morgen07:32 9. Februar 2023
Tageslänge09:53
Bewölkungsgradsonnig 100
Sonnenschein akt. Tag4:18 Stunden
Sonnenschein letzte Stunde60
Sonnenschein Woche (bis Vortag)8:09 Stunden
Sonnenschein Monat (bis Vortag)10:45 Stunden
Mond
Alter des Mondes17 Tage, 5 Stunden, 7 Minuten
Mondaufgang20:19
Mondzenit02:12
Monduntergang08:58
Mondphase-93%
(0% = Neumond, 100% = Vollmond)
nächster Vollmond13:41 7. März 2023
nächster Neumond08:06 20. Februar 2023
Die dargestellten Werte repräsentieren die Daten des aktuellen Tages! Der Luftdruck ist auf Meereshöhe bezogen!
Die Mond-/Sonnen-Daten beziehen sich auf die Standortkoordinaten von 47° 47' 26" Nord - 11° 0' 47" Ost
Zeit --> Mitteleuropäische Zeit
Die Wettervorhersage wurde berechnet - ohne Gewähr!

          Aussen-    Aussen                                                    Wind                              
Zeit     tempera.   Feuchte   Luftdruck   Taupunkt  Windchill      Wind       richtung     Sonne        Regen        
----------------------------------------------------------------------------------------------------------------------------
00:00     -5,3      79  1038,3    -8,4    -7,5      4,8        O       0     0,0   
01:00     -5,7      81  1037,9    -8,4    -7,9      4,8        O       0     0,0   
02:00     -6,2      83  1037,6    -8,6    -6,2      3,2        O       0     0,0   
03:00     -6,3      84  1037,5    -8,5    -8,6      4,8        O       0     0,0   
04:00     -7,4      83  1037,3    -9,8    -7,4      0,0        N       0     0,0   
05:00     -7,1      85  1037,1    -9,2    -9,5      4,8        O       0     0,0   
06:00     -7,1      85  1036,7    -9,2   -10,4      6,4        O       0     0,0   
07:00     -7,2      86  1036,4    -9,1   -10,5      6,4        O       0     0,0   
08:00     -7,2      87  1036,6    -9,0    -7,2      3,2        O      16     0,0   
09:00     -5,6      86  1036,8    -7,6    -9,3      8,0        O     190     0,0   
10:00     -4,2      81  1037,0    -7,0    -7,0      6,4        O     325     0,0   
11:00     -3,1      79  1037,0    -6,2    -5,0      4,8        O     436     0,0   
12:00     -1,7      72  1036,7    -6,1    -6,1     12,9     O-NO     420     0,0   
----------------------------------------------------------------------------------------------------------------------------
Durch.    -5,7      82  1037,1    -8,2    -7,7      5,3                           0,0

Min.      -7,9      68  1036,2   -10,0   -12,6
Zeit       04:32     12:31      12:26       04:19     06:36

Max.      -1,0      96  1038,3    -5,7                 24,1              478
Zeit       12:30     08:22      00:00       11:15                  11:33                  11:39

© 1999-2016 Werner Krenn / Mischa Thurnherr - Wetterstation Bedien- und Auswertesoftware - V2.98.4

Jahres-Eistage (Tmax < 0°C) 12 Vorjahres-Eistage (Tmax < 0°C) 10
Jahres-Frostage (Tmin < 0°C) 22 Vorjahres-Frostage (Tmin < 0°C) 78
Kalte Tage des Jahres (Tmax < 10°C) 31 Kalte Tage des Vorjahres (Tmax < 10°C) 104
Jahres-Sommertage (Tmax >= 25°C) 0 Vorjahres-Sommertage (Tmax >= 25°C) 65
Heiße Tage des Jahres (Tmax >= 30°C) 0 Heiße Tage Vorjahr (Tmax >= 30°C) 10